EW8775 Weather Reports


Display with metric or nautical units.
time (UTC)temp
F
wind
direction
speed
MPH
gust
MPH
rain 1hr
in
rain 24hr
in
rain mn
in
humidity
%
barometer
mb
20211203230016 53 270 1.0 4.0 0.00 0.00 0.00 50 1017.1
20211203223017 52 225 2.0 4.0 0.00 0.00 0.00 50 1016.9
20211203220016 52 247 2.0 5.0 0.00 0.00 0.00 51 1016.8
20211203213016 52 247 2.0 5.0 0.00 0.00 0.00 53 1016.8
20211203210016 51 225 2.0 6.0 0.00 0.00 0.00 55 1017.0
20211203203016 51 270 2.0 6.0 0.00 0.00 0.00 56 1017.3
20211203200016 50 292 2.0 6.0 0.00 0.00 0.00 58 1017.7
20211203193016 49 247 2.0 7.0 0.00 0.00 0.00 60 1018.1
20211203190015 48 0.0 1.0 0.00 0.00 0.00 61 1018.2
20211203183016 47 0.0 0.0 0.00 0.00 0.00 62 1018.7
20211203180016 46 0.0 0.0 0.00 0.00 0.00 64 1019.2
20211203173015 44 0.0 1.0 0.00 0.00 0.00 67 1019.4
20211203170016 42 0.0 2.0 0.00 0.00 0.00 71 1019.6
20211203163015 41 0.0 0.0 0.00 0.00 0.00 73 1019.5
20211203160015 38 0.0 0.0 0.00 0.00 0.00 77 1019.3
20211203153015 36 157 1.0 4.0 0.00 0.00 0.00 79 1018.6
20211203150015 35 45 1.0 5.0 0.00 0.00 0.00 78 1018.7
20211203143017 35 0.0 0.0 0.00 0.00 0.00 81 1018.6
20211203140017 37 0.0 0.0 0.00 0.00 0.00 74 1018.8
20211203133017 37 0.0 0.0 0.00 0.00 0.00 73 1018.8
20211203130017 37 0.0 0.0 0.00 0.00 0.00 73 1018.8
20211203123017 37 0.0 0.0 0.00 0.00 0.00 72 1018.9
20211203120017 38 0.0 0.0 0.00 0.00 0.00 70 1019.2
20211203113017 38 0.0 0.0 0.00 0.00 0.00 71 1019.4
20211203110016 38 0.0 0.0 0.00 0.00 0.00 71 1019.3
20211203103016 39 0.0 3.0 0.00 0.00 0.00 70 1019.3
20211203100018 38 0.0 4.0 0.00 0.00 0.00 69 1019.2
20211203093017 40 0.0 0.0 0.00 0.00 0.00 67 1019.0
20211203090016 41 0.0 0.0 0.00 0.00 0.00 66 1018.8
20211203083016 40 0.0 0.0 0.00 0.00 0.00 66 1018.7
20211203080016 41 0.0 0.0 0.00 0.00 0.00 65 1018.5
20211203073016 41 0.0 0.0 0.00 0.00 0.00 65 1018.9
20211203070016 41 0.0 0.0 0.00 0.00 0.00 64 1019.0
20211203063015 41 0.0 0.0 0.00 0.00 0.00 64 1018.9
20211203060017 40 45 1.0 4.0 0.00 0.00 0.00 65 1018.6
20211203053017 42 0.0 0.0 0.00 0.00 0.00 61 1018.5
20211203050017 43 0.0 0.0 0.00 0.00 0.00 59 1018.3
20211203043017 45 0.0 0.0 0.00 0.00 0.00 57 1018.0
20211203040017 44 0.0 0.0 0.00 0.00 0.00 57 1017.9
20211203033018 44 0.0 0.0 0.00 0.00 0.00 56 1017.9
20211203030016 45 0.0 3.0 0.00 0.00 0.00 55 1017.7
20211203023016 45 135 2.0 5.0 0.00 0.00 0.00 54 1017.6
20211203020017 46 135 3.0 7.0 0.00 0.00 0.00 55 1017.4
20211203013017 47 180 2.0 5.0 0.00 0.00 0.00 52 1017.2
20211203010017 48 180 1.0 3.0 0.00 0.00 0.00 51 1017.4
20211203003016 49 0.0 0.0 0.00 0.00 0.00 49 1017.3
20211203000016 52 0.0 0.0 0.00 0.00 0.00 44 1017.4
20211202233017 54 292 2.0 4.0 0.00 0.00 0.00 42 1017.6